SKP446 LIPB-EDDM

Flight info

Callsign SKP446
Flight time N/A
Altitude 20000
Route ALESE1W ALESE DCT NAXAV DCT BEXOR DCT SOTOV T101 ANDEC/N0266F210 T101 BETOS BETOS1A
Aircraft AT76/M-SDFGIRY/S

Departure

Time 2026-04-21 15:36
Airport Bolzano Airport (LIPB)

Arrival

Time N/A
Airport Munich Airport (EDDM)
Time Latitude Longitude Altitude Speed Heading
2026-04-21 15:08 46.46317 11.32894 787 ft 0 kts 101°
2026-04-21 15:30 46.46319 11.32898 787 ft 1 kts 76°
2026-04-21 15:30 46.46324 11.32889 787 ft 1 kts 272°
2026-04-21 15:31 46.46330 11.32848 787 ft 6 kts 311°
2026-04-21 15:31 46.46349 11.32844 787 ft 5 kts
2026-04-21 15:31 46.46408 11.32861 788 ft 10 kts 11°
2026-04-21 15:31 46.46425 11.32867 788 ft 0 kts 23°
2026-04-21 15:32 46.46419 11.32863 788 ft 2 kts 18°
2026-04-21 15:32 46.46411 11.32858 788 ft 1 kts
2026-04-21 15:32 46.46454 11.32862 788 ft 9 kts 19°
2026-04-21 15:32 46.46447 11.32828 789 ft 0 kts 63°
2026-04-21 15:33 46.46498 11.32895 789 ft 2 kts 25°
2026-04-21 15:33 46.46546 11.32903 789 ft 12 kts
2026-04-21 15:33 46.46649 11.32923 791 ft 16 kts
2026-04-21 15:33 46.46677 11.32918 791 ft 4 kts 285°
2026-04-21 15:34 46.46684 11.32844 790 ft 10 kts 277°
2026-04-21 15:34 46.46666 11.32808 789 ft 5 kts 191°
2026-04-21 15:34 46.46656 11.32807 789 ft 0 kts 187°
2026-04-21 15:35 46.46571 11.32783 788 ft 35 kts 189°
2026-04-21 15:36 46.46135 11.32669 787 ft 92 kts 190°
2026-04-21 15:36 46.45362 11.32457 959 ft 122 kts 190°
2026-04-21 15:36 46.44534 11.32302 1576 ft 124 kts 186°
2026-04-21 15:36 46.43639 11.32155 2088 ft 133 kts 187°
2026-04-21 15:37 46.42703 11.31973 2685 ft 136 kts 188°
2026-04-21 15:37 46.41842 11.31461 3244 ft 137 kts 213°
2026-04-21 15:37 46.41057 11.30675 3846 ft 136 kts 209°
2026-04-21 15:37 46.40247 11.30003 4488 ft 141 kts 210°
2026-04-21 15:38 46.39354 11.29265 4963 ft 152 kts 207°
2026-04-21 15:38 46.38391 11.28536 5411 ft 163 kts 207°
2026-04-21 15:38 46.37349 11.27760 5882 ft 172 kts 207°
2026-04-21 15:38 46.36198 11.27094 6350 ft 184 kts 198°
2026-04-21 15:39 46.34940 11.26573 6863 ft 195 kts 196°
2026-04-21 15:39 46.33596 11.26027 7332 ft 203 kts 197°
2026-04-21 15:39 46.32205 11.25462 7837 ft 209 kts 197°
2026-04-21 15:39 46.30800 11.24870 8346 ft 215 kts 199°
2026-04-21 15:40 46.29351 11.24223 8872 ft 220 kts 200°
2026-04-21 15:40 46.27869 11.23546 9409 ft 225 kts 200°
2026-04-21 15:40 46.26373 11.22865 9927 ft 230 kts 200°
2026-04-21 15:40 46.24825 11.22169 10415 ft 234 kts 200°
2026-04-21 15:41 46.23261 11.21464 10917 ft 237 kts 200°
2026-04-21 15:41 46.22213 11.20993 11261 ft 238 kts 200°
2026-04-21 15:41 46.20610 11.20272 11771 ft 241 kts 201°
2026-04-21 15:41 46.19014 11.19553 12273 ft 243 kts 201°
2026-04-21 15:42 46.16862 11.18585 12962 ft 245 kts 201°
2026-04-21 15:42 46.15776 11.18094 13323 ft 245 kts 201°
2026-04-21 15:42 46.14123 11.17354 13718 ft 252 kts 201°
2026-04-21 15:42 46.12429 11.16594 13973 ft 254 kts 202°
2026-04-21 15:43 46.10758 11.15850 14202 ft 254 kts 202°
2026-04-21 15:43 46.09064 11.15111 14454 ft 253 kts 201°
2026-04-21 15:43 46.07357 11.14414 14696 ft 254 kts 201°
2026-04-21 15:43 46.05669 11.13738 14900 ft 256 kts 201°
2026-04-21 15:44 46.03941 11.13052 15093 ft 258 kts 200°
2026-04-21 15:44 46.02147 11.12943 15285 ft 269 kts 170°
2026-04-21 15:44 46.00426 11.14100 15495 ft 273 kts 152°
2026-04-21 15:44 45.98836 11.15574 15716 ft 276 kts 149°
2026-04-21 15:45 45.97449 11.17500 15911 ft 280 kts 121°
2026-04-21 15:45 45.96879 11.20152 16108 ft 278 kts 88°
2026-04-21 15:45 45.97059 11.22862 16290 ft 271 kts 81°
2026-04-21 15:45 45.97153 11.25557 16437 ft 275 kts 85°
2026-04-21 15:46 45.97142 11.28337 16615 ft 279 kts 88°
2026-04-21 15:46 45.97113 11.31162 16794 ft 282 kts 87°
2026-04-21 15:46 45.97127 11.33976 16963 ft 284 kts 84°
2026-04-21 15:46 45.97257 11.36787 17112 ft 284 kts 79°
2026-04-21 15:47 45.97530 11.39618 17271 ft 284 kts 76°
2026-04-21 15:47 45.97869 11.42391 17443 ft 284 kts 73°
2026-04-21 15:47 45.98373 11.45146 17623 ft 282 kts 64°
2026-04-21 15:47 45.99159 11.47681 17768 ft 278 kts 57°
2026-04-21 15:48 46.00078 11.50160 17931 ft 277 kts 54°
2026-04-21 15:48 46.01171 11.52333 18113 ft 264 kts 32°
2026-04-21 15:48 46.02757 11.53382 18257 ft 243 kts 358°
2026-04-21 15:48 46.04323 11.52953 18413 ft 223 kts 324°
2026-04-21 15:49 46.05555 11.51692 18552 ft 219 kts 319°
2026-04-21 15:49 46.06819 11.50435 18697 ft 220 kts 322°
2026-04-21 15:49 46.08155 11.49354 18815 ft 223 kts 328°
2026-04-21 15:49 46.09594 11.48471 18819 ft 225 kts 333°
2026-04-21 15:50 46.11075 11.47759 18910 ft 226 kts 336°
2026-04-21 15:50 46.12595 11.47111 19069 ft 226 kts 336°
2026-04-21 15:50 46.14095 11.46476 19216 ft 226 kts 336°
2026-04-21 15:50 46.15611 11.45834 19383 ft 226 kts 336°
2026-04-21 15:51 46.17101 11.45178 19461 ft 225 kts 336°
2026-04-21 15:51 46.18610 11.44501 19653 ft 226 kts 335°
2026-04-21 15:51 46.20103 11.43825 19780 ft 226 kts 335°
2026-04-21 15:51 46.21620 11.43142 19902 ft 229 kts 335°
2026-04-21 15:52 46.23146 11.42450 19951 ft 235 kts 335°
2026-04-21 15:52 46.24736 11.41726 19960 ft 241 kts 335°
2026-04-21 15:52 46.26347 11.40991 19899 ft 243 kts 336°
2026-04-21 15:52 46.27954 11.40272 19902 ft 245 kts 336°
2026-04-21 15:53 46.29598 11.39544 19910 ft 247 kts 336°
2026-04-21 15:53 46.31225 11.38819 19918 ft 248 kts 336°
2026-04-21 15:53 46.32884 11.38084 19925 ft 250 kts 336°
2026-04-21 15:53 46.34563 11.37353 19917 ft 253 kts 337°
2026-04-21 15:54 46.36260 11.36620 19904 ft 254 kts 337°
2026-04-21 15:54 46.37942 11.35895 19919 ft 255 kts 337°
2026-04-21 15:54 46.39654 11.35157 19920 ft 257 kts 337°
2026-04-21 15:54 46.41386 11.34406 19924 ft 259 kts 337°
2026-04-21 15:55 46.43107 11.33659 19914 ft 261 kts 337°
2026-04-21 15:55 46.44854 11.32901 19902 ft 261 kts 338°
2026-04-21 15:55 46.46597 11.32146 19906 ft 261 kts 338°
2026-04-21 15:55 46.48371 11.31600 19908 ft 265 kts 345°
2026-04-21 15:56 46.50213 11.31249 19909 ft 266 kts 346°
2026-04-21 15:56 46.52053 11.30911 19913 ft 265 kts 346°
2026-04-21 15:56 46.53744 11.30057 19910 ft 253 kts 327°
2026-04-21 15:56 46.55269 11.28838 19910 ft 253 kts 327°
2026-04-21 15:57 46.56865 11.27696 19920 ft 256 kts 332°
2026-04-21 15:57 46.58557 11.26804 19922 ft 260 kts 337°
2026-04-21 15:57 46.60310 11.26073 19918 ft 263 kts 339°
2026-04-21 15:57 46.62066 11.25373 19914 ft 263 kts 339°
2026-04-21 15:58 46.63842 11.24653 19925 ft 264 kts 339°
2026-04-21 15:58 46.65606 11.23901 19933 ft 264 kts 338°
2026-04-21 15:58 46.67387 11.23248 19941 ft 267 kts 349°
2026-04-21 15:58 46.69245 11.23313 19944 ft 273 kts 357°
2026-04-21 15:59 46.71158 11.23455 19950 ft 274 kts 356°
2026-04-21 15:59 46.73052 11.23471 19952 ft 274 kts 353°
2026-04-21 15:59 46.74969 11.23357 19964 ft 274 kts 352°
2026-04-21 15:59 46.76881 11.23213 19966 ft 275 kts 352°
2026-04-21 16:00 46.78789 11.23068 19974 ft 276 kts 352°
2026-04-21 16:00 46.80695 11.22933 20013 ft 278 kts 352°
2026-04-21 16:00 46.82643 11.22802 20004 ft 278 kts 353°
2026-04-21 16:00 46.84579 11.22685 20004 ft 278 kts 353°
2026-04-21 16:01 46.86489 11.22563 20005 ft 276 kts 353°
2026-04-21 16:01 46.88409 11.22404 19958 ft 274 kts 352°
2026-04-21 16:01 46.90303 11.22105 19993 ft 273 kts 347°
2026-04-21 16:01 46.92181 11.21649 19999 ft 272 kts 346°
2026-04-21 16:02 46.94030 11.21167 20028 ft 272 kts 346°
2026-04-21 16:02 46.95926 11.20925 20027 ft 276 kts 357°
2026-04-21 16:02 46.97851 11.21113 20035 ft 278 kts
2026-04-21 16:02 46.99772 11.21370 20044 ft 279 kts
2026-04-21 16:03 47.01692 11.21583 20033 ft 278 kts 359°
2026-04-21 16:03 47.03628 11.21723 20061 ft 278 kts 359°
2026-04-21 16:03 47.05564 11.21838 20052 ft 277 kts 359°
2026-04-21 16:03 47.07476 11.21967 20059 ft 277 kts 359°
2026-04-21 16:04 47.09403 11.22098 20076 ft 277 kts 359°
2026-04-21 16:04 47.11320 11.22227 20085 ft 279 kts 359°
2026-04-21 16:04 47.13271 11.22356 20081 ft 280 kts 359°
2026-04-21 16:04 47.15234 11.22488 20079 ft 282 kts 359°
2026-04-21 16:05 47.17178 11.22619 20072 ft 283 kts 359°
2026-04-21 16:05 47.19149 11.22751 20076 ft 284 kts 360°
2026-04-21 16:05 47.21139 11.22887 20072 ft 284 kts 360°
2026-04-21 16:05 47.23097 11.23017 20065 ft 284 kts 360°
2026-04-21 16:06 47.25070 11.23151 20059 ft 283 kts 360°
2026-04-21 16:06 47.27040 11.23285 20070 ft 282 kts 359°
2026-04-21 16:06 47.29003 11.23417 20057 ft 282 kts 360°
2026-04-21 16:06 47.30942 11.23540 20026 ft 280 kts 360°
2026-04-21 16:07 47.32880 11.23669 20068 ft 279 kts 360°
2026-04-21 16:07 47.34814 11.23804 20078 ft 280 kts
2026-04-21 16:07 47.36781 11.23945 20075 ft 281 kts 360°